#timestamp,LO_Frequency,Hit,StdDev 
1543885215.1,286047005.6,N
1543885235.9,286047001.4,N
1543885255.7,286047002.3,N
1543885275.6,286047000.6,N
1543885295.4,286047000.6,N
1543885315.2,286047000.3,N
1543885335.1,286047002.6,N
1543885336.0,286047002.6,N
1543885355.8,286046998.6,N
1543885375.6,286047000.9,N
1543885395.5,286047001.9,N
1543885415.3,286047011.9,Y
1543885435.2,286047003.8,P
1543885455.9,286047002.6,P
1543885475.7,286046999.9,N
1543885495.6,286047000.3,N
1543885515.4,286047002.6,N
1543885535.2,286047003.4,N
1543885555.1,286047003.4,N
1543885556.0,286047003.4,N
1543885575.8,286047004.1,Y
1543885595.7,286047002.2,P
1543885615.5,286047001.7,P
1543885635.3,286047003.3,P
1543885655.2,286047004.5,Y
1543885675.0,286047003.9,P
1543885675.9,286047003.9,P
1543885695.8,286047005.7,P
1543885715.6,286047004.5,Y
1543885735.4,286047000.6,P
1543885755.3,286046996.9,N
1543885775.1,286046996.8,N
1543885795.9,286046996.8,N
1543885815.7,286046996.5,N
1543885835.5,286046998.3,N
1543885855.4,286046996.7,N
1543885875.2,286046997.4,N
1543885895.0,286046999.2,N
1543885895.9,286046999.2,N
1543885915.8,286047002.2,N
1543885935.6,286047001.1,N
1543885955.5,286047000.3,N
1543885975.3,286046998.1,N
1543885995.1,286047003.2,N
1543886015.9,286047003.1,N
1543886035.7,286047003.6,N
1543886055.6,286047005.5,N
1543886075.4,286047003.5,N
1543886095.2,286047006.0,N
1543886115.1,286047003.7,N
1543886116.0,286047003.7,N
1543886135.8,286047003.7,N
1543886155.6,286047005.5,N
1543886175.5,286047003.3,N
1543886195.3,286047005.3,N
1543886215.2,286047007.4,N
1543886235.9,286047008.5,N
1543886255.7,286047009.6,N
1543886275.6,286047011.8,Y
1543886295.4,286047012.4,P
1543886315.2,286047008.6,N
1543886335.1,286047010.1,N
1543886366.0,286047007.8,E
1543886375.0,286047008.7,N
1543886375.9,286047008.7,P
1543886395.8,286047004.0,P
1543886415.6,286047001.5,N
1543886435.5,286046998.4,N
1543886455.3,286047000.1,N
1543886475.1,286047003.7,N
1543886495.9,286047002.8,N
1543886515.7,286047000.1,N
1543886535.5,286047002.2,N
1543886555.4,286047003.3,N
1543886575.2,286047003.1,N
1543886595.0,286047003.6,N
1543886596.0,286047003.6,N
1543886615.8,286047001.7,N
1543886635.6,286047001.6,N
1543886655.5,286047000.6,N
1543886675.3,286047000.3,N
1543886695.1,286047002.4,N
1543886715.9,286047002.3,N
1543886735.7,286047001.9,N
1543886755.6,286046998.2,N
1543886775.4,286046992.1,Y
1543886795.2,286046985.3,P
1543886815.1,286046982.2,N
1543886816.0,286046982.2,N
1543886835.8,286046983.4,N
1543886855.6,286046984.6,N
1543886875.5,286046986.5,N
1543886895.3,286046989.3,N
1543886915.2,286046989.1,N
1543886935.9,286046987.3,N
1543886955.7,286046989.8,N
1543886975.6,286046993.1,N
1543886995.4,286046993.9,N
1543887015.2,286046993.9,N
1543887035.1,286046995.9,N
1543887036.0,286046995.9,N
1543887055.8,286046992.4,N
1543887075.7,286046988.0,N
1543887095.5,286046980.7,Y
1543887115.3,286046986.7,P
1543887135.2,286046979.4,P
1543887155.0,286046974.7,P
1543887155.9,286046974.7,Y
1543887175.8,286046988.4,P
1543887195.6,286046981.2,P
1543887215.4,286046978.3,P
1543887235.3,286046972.7,Y
1543887255.1,286046987.3,P
1543887275.8,286046986.4,P
1543887295.7,286046982.4,P
1543887315.5,286046980.2,Y
1543887335.4,286046992.3,P
1543887355.2,286046991.3,N
1543887375.0,286046988.3,P
1543887375.9,286046988.3,Y
1543887395.8,286046997.9,P
1543887415.6,286046996.4,N
1543887435.4,286046992.4,N
1543887455.3,286046993.1,N
1543887475.1,286046991.5,N
1543887495.9,286046989.9,Y
1543887515.7,286046994.2,P
1543887535.5,286046992.2,P
1543887555.4,286046990.2,P
1543887575.2,286046991.6,Y
1543887595.0,286046997.7,P
1543887596.0,286046997.7,N
1543887615.8,286046995.0,N
1543887635.6,286046996.2,N
1543887655.5,286046996.0,N
1543887675.3,286046994.5,Y
1543887695.1,286046996.7,P
1543887715.9,286046997.9,P
1543887735.7,286046995.3,P
1543887755.6,286046995.5,Y
1543887775.4,286046996.6,P
1543887795.2,286046999.1,P
1543887815.1,286046999.6,N
1543887816.0,286046999.6,N
1543887835.8,286046995.4,Y
1543887855.6,286046996.5,P
1543887875.5,286046997.2,P
1543887895.3,286046997.7,P
1543887915.2,286046995.4,Y
1543887935.9,286046999.2,P
1543887955.7,286046999.5,N
1543887975.6,286046997.2,P
1543887995.4,286046997.9,N
1543888015.2,286046997.7,N
1543888035.1,286046995.8,Y
1543888036.0,286046995.8,P
1543888055.8,286046996.9,N
1543888075.7,286047011.9,P
1543888095.5,286046995.6,N
1543888115.3,286046993.7,N
1543888135.2,286046993.6,N
1543888155.0,286046994.1,N
1543888155.9,286046994.1,N
1543888175.7,286046996.9,N
1543888195.6,286047004.3,N
1543888215.4,286047009.2,N
1543888235.3,286047017.6,N
1543888255.1,286047021.3,N
1543888256.0,286047021.3,N
1543888275.8,286047022.8,N
1543888295.7,286047026.9,N
1543888315.5,286047033.6,N
1543888335.3,286047036.6,N
1543888355.2,286047039.9,N
1543888375.0,286047044.6,N
1543888375.9,286047044.6,N
1543888395.8,286047047.7,N
1543888415.6,286047050.6,N
1543888435.4,286047048.3,N
1543888455.3,286047052.4,N
1543888475.1,286047052.7,N
1543888495.9,286047056.9,N
1543888515.7,286047060.1,N
1543888535.5,286047060.0,N
1543888555.4,286047058.5,N
1543888575.2,286047054.5,N
1543888595.0,286047058.5,N
1543888595.9,286047058.5,N
1543888615.8,286047059.6,N
1543888635.6,286047059.2,N
1543888655.5,286047059.0,N
1543888675.3,286047059.2,N
1543888695.1,286047060.6,N
1543888715.9,286047065.0,Y
1543888735.7,286047021.1,P
1543888755.6,286047022.5,N
1543888775.4,286047027.9,N
1543888795.2,286047030.3,Y
